Location: Unspecified
(0.0000°N, 0.0000°E)
Time: 19:56:37
(UTC+00:00)

Pageos canister half - Visible Passes

Search period start: 10 April 2026 00:00
Search period end: 20 April 2026 00:00
Orbit: 4207 x 4272 km, 86.9° (Epoch: 10 April)

Date Brightness Start Highest point End Pass type
(mag) Time Alt. Az. Time Alt. Az. Time Alt. Az.
10 Apr ? 20:01:36 10° SSE 20:24:15 42° ENE 20:41:28 10° NNE visible
10 Apr ? 23:02:48 10° SSW 23:25:35 35° WNW 23:40:41 10° NNW visible
11 Apr ? 20:12:46 10° SSE 20:34:38 51° E 20:54:20 10° NNE visible
11 Apr ? 23:16:12 10° SSW 23:35:54 30° W 23:51:11 10° NW visible
12 Apr ? 20:24:10 10° SSE 20:45:40 60° E 21:06:58 10° N visible
12 Apr ? 23:30:02 10° SW 23:45:26 24° W 00:01:11 10° NW visible
13 Apr ? 20:35:46 10° SSE 20:57:39 69° E 21:19:25 10° N visible
13 Apr ? 23:44:36 10° SW 23:57:17 18° W 00:10:22 10° NW visible
14 Apr ? 20:47:33 10° S 21:09:38 79° E 21:31:43 10° N visible
15 Apr ? 00:00:40 10° WSW 00:09:11 13° W 00:17:54 10° WNW visible
15 Apr ? 20:59:30 10° S 21:21:38 89° E 21:43:50 10° N visible
16 Apr ? 18:26:21 10° ESE 18:34:09 13° E 18:41:49 10° ENE visible
16 Apr ? 21:11:37 10° S 21:33:38 81° W 21:55:49 10° N visible
17 Apr ? 18:33:28 10° ESE 18:46:03 18° E 18:58:17 10° NE visible
17 Apr ? 21:23:52 10° S 21:45:37 71° W 22:07:38 10° N visible
18 Apr ? 18:42:29 10° SE 18:57:57 23° E 19:13:00 10° NE visible
18 Apr ? 21:36:18 10° S 21:57:36 61° W 22:19:16 10° NNW visible
19 Apr ? 18:52:24 10° SE 19:09:53 29° E 19:26:56 10° NNE visible
19 Apr ? 21:48:55 10° SSW 22:09:35 52° W 22:30:42 10° NNW visible
